DW0383 Weather Reports


Display with metric or nautical units.
time (UTC)temp
F
wind
direction
speed
MPH
gust
MPH
rain 1hr
in
rain 24hr
in
rain mn
in
humidity
%
barometer
mb
20260504141325 48 289 3.0 6.0 0.01 0.03 0.03 81 1006.5
20260504140818 48 167 1.0 9.0 0.00 0.02 0.02 79 1006.4
20260504140312 49 170 3.0 9.0 0.00 0.02 0.02 76 1006.4
20260504130326 49 281 1.0 7.0 0.00 0.02 0.02 73 1005.7
20260504120309 49 299 3.0 9.0 0.00 0.02 0.02 77 1005.8
20260504110325 45 143 1.0 4.0 0.00 0.02 0.02 86 1006.2
20260504100309 43 149 3.0 7.0 0.01 0.02 0.02 91 1006.3
20260504081816 43 191 1.0 9.0 0.00 0.01 0.01 82 1006.7
20260504081309 43 152 2.0 9.0 0.00 0.01 0.01 83 1006.7
20260504080842 43 115 1.0 4.0 0.00 0.01 0.01 83 1006.6
20260504080314 42 153 1.0 6.0 0.00 0.01 0.01 84 1006.8
20260504070318 40 103 2.0 4.0 0.00 0.01 0.01 87 1007.0
20260504050334 33 146 1.0 3.0 0.00 0.00 0.00 92 1007.3
20260504045825 33 146 1.0 3.0 0.00 0.00 0.00 92 1007.4
20260504045338 33 146 1.0 3.0 0.00 0.00 0.00 92 1007.4
20260504044819 32 146 1.0 2.0 0.00 0.00 0.00 92 1007.6
20260504044320 32 146 0.0 2.0 0.00 0.00 0.00 92 1007.6
20260504043811 32 146 1.0 2.0 0.00 0.00 0.00 92 1007.5
20260504043323 32 146 0.0 0.0 0.00 0.00 0.00 93 1007.6
20260504042815 32 146 0.0 0.0 0.00 0.00 0.00 92 1007.6
20260504042327 31 146 0.0 0.0 0.00 0.00 0.00 92 1007.7
20260504041838 31 146 0.0 0.0 0.00 0.00 0.00 91 1007.6
20260504041309 32 146 0.0 0.0 0.00 0.00 0.00 91 1007.6
20260504040821 32 146 0.0 0.0 0.00 0.00 0.00 91 1007.6
20260504040314 32 146 0.0 0.0 0.00 0.00 0.00 91 1007.7
20260504035826 31 146 0.0 0.0 0.00 0.00 0.00 91 1007.7
20260504035318 31 146 0.0 2.0 0.00 0.00 0.00 90 1007.6
20260504034810 31 146 0.0 2.0 0.00 0.00 0.00 90 1007.7
20260504034311 31 146 1.0 2.0 0.00 0.00 0.00 90 1007.7
20260504033826 31 146 1.0 2.0 0.00 0.00 0.00 90 1007.7
20260504033320 31 146 2.0 3.0 0.00 0.00 0.00 89 1007.7
20260504032813 31 146 1.0 2.0 0.00 0.00 0.00 89 1007.7
20260504032326 32 146 1.0 2.0 0.00 0.00 0.00 89 1007.7
20260504031808 32 146 1.0 2.0 0.00 0.00 0.00 88 1007.7
20260504031319 32 146 1.0 2.0 0.00 0.00 0.00 88 1007.7
20260504030810 32 146 1.0 2.0 0.00 0.00 0.00 88 1007.7
20260504030322 32 146 1.0 3.0 0.00 0.00 0.00 88 1007.7
20260504025815 32 146 2.0 3.0 0.00 0.01 0.00 87 1007.7
20260504025327 32 146 0.0 2.0 0.00 0.01 0.00 87 1007.8
20260504024840 33 146 1.0 3.0 0.00 0.01 0.00 87 1007.9
20260504024313 33 146 2.0 3.0 0.00 0.01 0.00 86 1007.9
20260504023826 33 146 0.0 3.0 0.00 0.01 0.00 86 1007.9
20260504023318 33 146 0.0 3.0 0.00 0.01 0.00 86 1008.0
20260504022814 33 146 1.0 2.0 0.00 0.01 0.00 86 1007.9
20260504022342 33 146 1.0 2.0 0.00 0.01 0.00 86 1008.0
20260504021818 33 146 1.0 3.0 0.00 0.01 0.00 86 1007.9
20260504021311 33 146 2.0 3.0 0.00 0.01 0.00 86 1008.1
20260504020821 34 146 1.0 3.0 0.00 0.01 0.00 85 1008.0
20260504020314 34 146 2.0 3.0 0.00 0.01 0.00 85 1007.9
20260504015827 34 200 1.0 2.0 0.00 0.01 0.00 84 1008.0
20260504015319 34 200 1.0 2.0 0.00 0.01 0.00 84 1007.9
20260504014812 35 200 0.0 2.0 0.00 0.01 0.00 83 1008.1
20260504014343 35 200 1.0 2.0 0.00 0.01 0.00 83 1008.0
20260504013815 35 200 1.0 2.0 0.00 0.01 0.00 82 1008.0
20260504013327 36 200 1.0 2.0 0.00 0.01 0.00 81 1008.0
20260504012820 36 200 1.0 2.0 0.00 0.01 0.00 80 1008.0
20260504012313 36 200 1.0 2.0 0.00 0.01 0.00 80 1008.0
20260504011827 37 200 1.0 2.0 0.00 0.01 0.00 79 1008.0
20260504011318 37 200 1.0 2.0 0.00 0.01 0.00 78 1007.8
20260504010810 37 200 0.0 2.0 0.00 0.01 0.00 77 1007.9
20260504010323 38 200 1.0 2.0 0.00 0.01 0.00 77 1007.8
20260504005842 38 258 0.0 1.0 0.00 0.03 0.00 76 1007.9
20260504005313 39 258 0.0 0.0 0.00 0.03 0.00 76 1007.8
20260504004826 39 258 0.0 2.0 0.00 0.03 0.00 73 1007.7
20260504004317 40 258 0.0 2.0 0.00 0.03 0.00 72 1007.7
20260504003812 40 258 0.0 1.0 0.00 0.03 0.00 71 1007.7
20260504003323 40 258 0.0 1.0 0.00 0.03 0.00 69 1007.7
20260504002837 41 258 0.0 1.0 0.00 0.03 0.00 67 1007.7
20260504002316 41 258 0.0 1.0 0.00 0.03 0.00 66 1007.7
20260504001809 42 258 0.0 1.0 0.00 0.03 0.00 68 1007.6
20260504001323 42 258 0.0 1.0 0.00 0.03 0.00 64 1007.5
20260504000836 43 258 0.0 1.0 0.00 0.03 0.00 65 1007.5
20260504000328 43 258 0.0 2.0 0.00 0.03 0.00 63 1007.6
20260503235820 44 258 1.0 2.0 0.00 0.04 0.00 64 1007.6
20260503235311 44 258 1.0 2.0 0.00 0.04 0.00 63 1007.5
20260503234811 44 258 1.0 2.0 0.00 0.04 0.00 65 1007.5
20260503234324 45 258 1.0 2.0 0.00 0.04 0.00 67 1007.4
20260503233816 45 258 1.0 2.0 0.00 0.04 0.00 66 1007.3
20260503233328 45 258 1.0 2.0 0.00 0.04 0.00 64 1007.3
20260503232820 45 258 1.0 3.0 0.00 0.04 0.00 62 1007.3
20260503232316 46 258 1.0 3.0 0.00 0.04 0.00 63 1007.3
20260503231809 46 224 1.0 3.0 0.00 0.04 0.00 66 1007.2
20260503231322 46 224 1.0 3.0 0.00 0.04 0.00 63 1007.1
20260503230815 46 224 1.0 3.0 0.00 0.04 0.00 60 1007.1
20260503230317 47 153 1.0 2.0 0.00 0.04 0.00 63 1007.3
20260503225810 47 255 0.0 2.0 0.00 0.04 0.00 59 1007.3
20260503225321 47 270 1.0 2.0 0.00 0.04 0.00 63 1007.5
20260503224813 48 295 1.0 2.0 0.00 0.04 0.00 63 1007.4
20260503224344 48 323 0.0 1.0 0.00 0.04 0.00 56 1007.4
20260503223815 48 323 1.0 2.0 0.00 0.04 0.00 51 1007.3
20260503223308 48 323 0.0 4.0 0.00 0.04 0.00 51 1007.2
20260503222819 48 315 2.0 4.0 0.00 0.04 0.00 49 1007.3
20260503222309 48 319 1.0 3.0 0.00 0.04 0.00 54 1007.3
20260503221822 48 265 1.0 2.0 0.00 0.04 0.00 50 1007.4
20260503221314 49 345 0.0 4.0 0.00 0.04 0.00 51 1007.4
20260503220827 49 318 2.0 4.0 0.00 0.04 0.00 52 1007.3
20260503220319 49 288 2.0 3.0 0.00 0.04 0.00 51 1007.3
20260503215833 49 332 0.0 3.0 0.00 0.04 0.00 50 1007.3
20260503215326 49 327 0.0 3.0 0.00 0.04 0.00 52 1007.3
20260503214819 49 339 1.0 7.0 0.00 0.04 0.00 52 1007.2
20260503214311 49 320 3.0 7.0 0.00 0.04 0.00 48 1007.3
20260503213844 49 318 1.0 6.0 0.00 0.04 0.00 53 1007.2
20260503213314 49 4 1.0 8.0 0.00 0.04 0.00 53 1007.3
20260503212826 48 307 4.0 8.0 0.00 0.04 0.00 50 1007.3
20260503212318 49 314 3.0 8.0 0.00 0.04 0.00 50 1007.2
20260503211810 49 328 2.0 8.0 0.00 0.04 0.00 52 1007.2
20260503211322 49 316 3.0 7.0 0.00 0.04 0.00 49 1007.2
20260503210814 49 360 0.0 5.0 0.00 0.04 0.00 52 1007.1
20260503210310 49 315 3.0 7.0 0.00 0.04 0.00 50 1007.2
20260503205821 49 322 1.0 7.0 0.00 0.04 0.00 52 1007.2
20260503205315 48 284 2.0 8.0 0.00 0.04 0.00 52 1007.2
20260503204827 49 292 3.0 9.0 0.00 0.04 0.00 52 1007.3
20260503204320 49 306 2.0 8.0 0.00 0.04 0.00 54 1007.3
20260503203812 49 349 1.0 7.0 0.00 0.04 0.00 53 1007.3
20260503203325 49 310 2.0 7.0 0.00 0.04 0.00 52 1007.3
20260503202816 50 312 1.0 6.0 0.00 0.04 0.00 53 1007.2
20260503202309 50 27 2.0 5.0 0.00 0.04 0.00 53 1007.3
20260503201823 50 31 2.0 5.0 0.00 0.04 0.00 52 1007.2
20260503201314 49 26 2.0 9.0 0.00 0.04 0.00 58 1007.3
20260503200825 48 315 3.0 9.0 0.00 0.04 0.00 52 1007.4
20260503200318 48 304 3.0 7.0 0.00 0.04 0.00 55 1007.4
20260503195809 48 16 2.0 4.0 0.00 0.04 0.00 58 1007.4
20260503195321 48 316 2.0 9.0 0.00 0.04 0.00 57 1007.4
20260503194812 48 308 3.0 9.0 0.00 0.04 0.00 56 1007.5
20260503194324 48 303 1.0 8.0 0.00 0.04 0.00 55 1007.6
20260503193816 47 316 3.0 9.0 0.00 0.04 0.00 58 1007.6
20260503193330 47 318 4.0 9.0 0.00 0.04 0.00 54 1007.7
20260503192821 47 313 5.0 8.0 0.00 0.04 0.00 55 1007.6
20260503192313 47 322 2.0 7.0 0.00 0.04 0.00 57 1007.7
20260503191826 47 297 4.0 8.0 0.00 0.04 0.00 56 1007.7
20260503191338 48 305 4.0 8.0 0.00 0.04 0.00 57 1007.7
20260503190810 47 325 4.0 10.0 0.00 0.04 0.00 56 1007.8
20260503190343 47 314 3.0 12.0 0.00 0.04 0.00 54 1007.8
20260503185815 47 316 7.0 12.0 0.00 0.04 0.00 57 1007.9
20260503185312 46 302 5.0 12.0 0.00 0.04 0.00 56 1008.0
20260503184826 46 318 5.0 12.0 0.00 0.04 0.00 55 1008.0
20260503184318 46 303 3.0 9.0 0.00 0.04 0.00 55 1008.1
20260503183812 46 308 6.0 9.0 0.00 0.04 0.00 56 1008.0
20260503183313 46 308 4.0 10.0 0.00 0.04 0.00 54 1008.0
20260503182826 47 349 5.0 10.0 0.00 0.04 0.00 54 1008.0
20260503182318 48 305 2.0 9.0 0.00 0.04 0.00 55 1007.9
20260503181831 48 321 3.0 9.0 0.00 0.04 0.00 56 1008.0
20260503181324 48 348 2.0 9.0 0.00 0.04 0.00 57 1008.0
20260503180825 47 315 4.0 9.0 0.00 0.04 0.00 59 1008.1
20260503180318 46 328 4.0 14.0 0.00 0.04 0.00 58 1008.0
20260503175810 46 318 5.0 14.0 0.00 0.04 0.00 56 1008.0
20260503175323 46 314 3.0 9.0 0.00 0.04 0.00 59 1008.0
20260503174815 46 314 3.0 11.0 0.00 0.04 0.00 55 1008.1
20260503174327 46 322 4.0 11.0 0.00 0.04 0.00 54 1008.1
20260503173818 46 312 5.0 13.0 0.00 0.04 0.00 54 1008.1
20260503173310 46 293 6.0 13.0 0.00 0.04 0.00 55 1008.1
20260503172822 46 338 5.0 10.0 0.00 0.04 0.00 53 1008.1
20260503172314 47 326 4.0 10.0 0.00 0.04 0.00 59 1008.1
20260503171826 47 313 5.0 9.0 0.00 0.04 0.00 51 1008.0
20260503171318 48 316 3.0 9.0 0.00 0.04 0.00 56 1008.1
20260503170810 49 297 2.0 9.0 0.00 0.04 0.00 56 1008.1
20260503170322 49 291 2.0 6.0 0.00 0.04 0.00 54 1008.1
20260503150823 46 4 2.0 8.0 0.00 0.04 0.00 66 1009.0
20260503150316 46 330 2.0 7.0 0.00 0.04 0.00 69 1008.9